Vorticity
nan nan nan nan nan nan nan nan nan nan nan nan nan nan nan nan nan nan nan nan nan nan nan nan nan nan nan nan nan nan nan nan nan nan nan nan nan nan nan nan nan nan nan
nan 7 7 8 8 6 6 8 9 7 8 6 6 8 9 7 9 7 8 12 11 10 9 9 7 5 4 7 7 6 6 6 6 7 5 5 7 6 5 7 7 6 nan
nan 7 6 7 9 9 5 5 7 8 9 8 7 7 9 10 8 8 7 8 9 9 10 12 10 8 6 4 6 6 5 7 8 6 6 6 5 5 6 6 5 5 nan
nan 8 7 7 8 8 8 7 7 7 8 8 7 7 7 10 8 8 8 7 7 8 11 11 13 11 11 8 5 5 7 7 6 7 7 6 6 5 4 5 5 6 nan
nan 7 8 9 7 7 8 7 8 7 7 9 9 8 7 8 9 8 7 6 7 7 10 12 11 9 10 9 9 5 5 5 6 6 5 5 5 6 5 5 5 5 nan
nan 6 8 10 6 6 7 8 8 6 9 10 8 7 8 9 8 9 8 6 7 8 8 8 8 11 11 8 9 7 6 6 5 4 6 6 6 5 5 5 6 6 nan
nan 6 7 10 8 7 8 6 8 7 7 9 6 6 8 12 10 9 8 8 8 7 7 7 7 9 13 12 9 10 7 6 6 6 5 6 6 5 6 6 6 6 nan
nan 8 8 8 8 9 10 7 5 5 9 7 4 8 7 7 11 11 9 9 8 7 8 8 8 8 7 10 15 12 8 9 7 6 7 7 7 7 6 6 6 6 nan
nan 9 9 8 8 8 9 9 9 7 5 6 6 5 9 9 7 9 10 9 9 7 8 8 7 7 7 9 11 12 10 9 10 8 7 8 8 7 6 6 6 6 nan
nan 8 9 9 7 7 9 9 9 9 8 7 4 6 9 11 9 7 9 11 10 9 8 7 8 8 7 9 10 10 9 7 8 11 10 8 7 6 7 7 7 7 nan
nan 8 8 8 7 7 9 9 9 7 6 9 7 5 7 7 10 12 10 7 9 11 9 10 9 8 8 7 8 10 11 8 7 7 9 10 10 8 7 7 7 6 nan
nan 10 9 7 8 9 9 9 9 9 7 7 10 9 9 8 6 6 10 12 9 9 11 9 9 9 9 10 11 10 9 8 7 7 8 9 9 10 10 9 8 7 nan
nan 11 8 7 9 9 8 9 9 9 8 10 10 7 9 9 6 5 7 11 10 10 10 11 11 9 9 9 12 12 11 9 8 8 8 8 8 9 9 10 9 8 nan
nan 10 10 9 9 9 9 8 8 10 10 10 7 8 8 10 8 7 6 7 8 10 8 10 12 10 9 11 13 10 10 13 9 9 8 8 8 8 9 9 9 9 nan
nan 12 10 10 9 10 10 8 8 9 9 11 10 8 7 9 8 8 8 6 8 11 8 8 10 12 10 11 11 11 12 14 12 9 9 9 9 9 9 11 11 10 nan
nan 11 9 9 7 8 8 8 8 10 11 10 12 9 6 7 10 10 11 9 7 9 12 10 9 11 12 12 13 9 11 12 14 12 12 10 10 11 10 12 14 14 nan
nan 9 9 8 9 9 9 9 9 13 16 14 13 9 5 4 7 10 9 11 9 9 9 9 10 9 11 9 10 9 9 10 16 20 21 22 20 19 19 16 17 18 nan
nan 10 10 9 11 10 12 11 9 14 15 13 13 12 9 5 7 8 9 9 7 8 12 11 7 9 8 8 7 8 10 12 9 17 20 20 20 20 19 18 16 15 nan
nan 11 11 11 11 11 10 11 11 11 12 11 10 10 13 11 5 6 8 8 9 7 8 10 10 9 8 8 10 11 10 11 10 6 5 8 8 9 10 10 11 11 nan
nan 9 10 11 11 13 14 13 12 13 13 14 15 12 10 13 12 8 7 7 6 8 8 8 10 10 10 10 10 11 10 8 6 -1 3 4 3 4 5 7 9 10 nan
nan 11 9 8 10 11 11 16 17 13 12 11 11 12 11 16 20 21 19 17 10 7 8 9 9 10 10 10 9 10 10 6 5 8 5 5 5 4 3 4 7 9 nan
nan 10 10 10 10 8 12 23 20 12 11 11 9 8 8 7 10 13 15 17 24 24 14 9 10 10 9 9 10 10 11 10 5 7 9 8 8 9 7 6 7 6 nan
nan 9 9 10 10 8 13 19 18 14 11 11 11 10 9 7 7 4 2 3 8 15 20 21 14 11 11 9 11 10 9 12 10 11 10 9 9 8 7 7 5 7 nan
nan 11 10 9 8 7 11 14 14 12 9 10 13 14 11 10 12 12 6 4 5 6 14 22 19 17 17 16 11 10 11 10 8 8 12 12 10 8 8 5 5 9 nan
nan 11 12 11 11 7 9 14 13 9 9 9 12 14 15 13 16 13 9 6 8 6 8 10 8 10 12 18 21 14 10 8 7 6 11 13 10 9 9 8 6 6 nan
nan nan nan nan nan nan nan nan nan nan nan nan nan nan nan nan nan nan nan nan nan nan nan nan nan nan nan nan nan nan nan nan nan nan nan nan nan nan nan nan nan nan nan
CAPE
234 212 114 20 11 0 0 1 52 93 24 53 84 41 7 11 6 0 66 132 288 666 655 535 468 321 189 107 88 38 18 14 12 9 15 20 24 17 25 21 21 18 18
48 57 0 9 0 0 8 0 1 26 18 59 64 39 3 7 0 4 2 36 143 269 453 485 383 240 119 73 82 39 30 25 27 10 19 25 26 4 24 22 18 12 9
16 0 0 14 2 18 21 0 0 0 68 55 80 32 0 0 0 2 0 0 13 72 195 346 342 311 111 32 38 41 38 42 29 28 9 18 3 16 15 15 12 11 10
16 0 0 20 9 17 52 17 0 1 29 112 18 17 0 0 0 0 0 0 0 0 2 83 95 157 88 35 36 23 30 34 36 26 18 16 11 8 21 15 12 6 8
48 4 0 0 3 2 1 33 4 2 0 7 2 1 0 0 2 0 0 0 0 0 0 0 0 10 44 60 39 25 31 19 19 32 25 18 14 19 18 11 6 4 5
187 148 45 7 3 1 22 7 1 2 0 1 3 2 0 0 0 0 0 0 0 0 0 0 4 17 35 47 44 33 22 17 23 20 20 11 6 20 15 12 7 5 4
259 236 124 41 0 16 6 12 3 1 0 3 43 1 1 0 1 0 0 0 0 0 0 0 0 0 16 21 39 34 43 40 29 11 17 4 7 3 16 12 7 6 6
197 223 117 62 77 100 57 1 0 1 0 0 24 0 1 1 1 0 0 0 0 0 0 0 0 0 0 12 13 34 36 42 34 14 8 10 13 6 12 10 8 6 6
133 192 64 178 106 21 11 0 0 1 0 12 0 0 3 0 0 0 0 0 0 0 0 0 0 0 0 0 0 0 1 16 33 20 27 25 22 15 8 9 9 6 5
101 95 55 138 124 13 0 0 1 1 0 3 0 0 0 0 0 1 0 0 0 0 0 0 0 0 0 0 0 0 0 0 0 15 20 25 25 15 13 11 7 4 5
93 173 186 129 19 0 0 1 4 1 0 0 3 0 0 0 0 0 0 0 0 0 0 0 0 0 0 0 0 0 0 0 0 0 6 74 95 104 103 96 65 44 23
117 133 56 54 24 2 1 0 0 0 5 3 0 0 0 0 0 0 0 0 0 0 0 0 0 0 0 0 0 0 0 0 0 0 0 0 82 182 193 190 195 142 161
59 50 120 51 10 12 2 0 2 6 5 1 0 0 0 0 0 0 0 0 0 0 0 0 0 0 0 0 0 0 0 0 0 0 0 0 1 23 103 207 257 275 280
127 34 1 6 27 12 13 15 11 17 12 15 1 1 0 0 0 0 0 2 0 0 0 0 0 0 0 0 0 0 0 0 0 0 0 0 0 0 0 3 55 128 206
22 0 8 5 2 14 13 7 34 28 22 10 3 0 0 0 0 0 0 0 4 14 9 1 0 0 0 0 0 0 0 0 0 0 0 0 0 0 0 0 0 0 0
0 0 0 0 1 0 1 1 8 16 48 14 1 1 1 0 0 0 0 0 7 9 12 0 0 0 0 0 0 0 0 0 0 0 0 0 0 0 0 0 0 0 0
0 0 0 0 0 1 1 1 1 1 2 1 1 1 1 0 0 0 0 0 0 0 0 0 0 0 0 0 2 0 0 0 0 0 0 0 0 0 0 0 0 0 0
0 0 0 1 1 0 1 0 0 3 4 1 1 0 0 0 0 0 0 0 0 0 0 0 0 0 0 0 0 0 0 0 0 0 0 0 0 0 0 0 0 0 0
0 0 0 1 1 2 1 1 1 0 1 0 0 1 0 0 0 0 0 0 0 0 0 0 0 0 0 0 0 0 0 0 0 0 1 1 2 1 1 1 1 1 2
0 0 0 0 0 0 1 0 1 1 1 1 1 0 0 0 0 0 0 0 0 0 0 0 0 0 0 0 0 0 0 0 0 0 1 2 2 3 3 3 2 2 2
0 0 0 0 0 0 0 0 0 1 0 0 1 0 0 1 1 0 0 0 0 0 0 0 0 1 0 0 0 0 0 3 1 1 4 4 2 2 2 2 3 3 2
0 0 0 0 0 0 0 1 0 0 0 0 0 1 1 1 0 0 0 0 1 0 0 0 0 0 0 0 0 0 0 0 1 0 2 3 1 1 1 2 2 2 1
0 1 1 1 1 1 0 0 0 0 0 0 0 1 1 1 1 1 1 0 1 0 0 0 0 0 0 0 0 0 0 0 1 0 0 2 0 1 1 1 1 1 0
1 1 1 1 1 4 2 1 0 0 0 0 0 0 1 1 1 0 0 0 1 0 0 0 0 1 1 0 0 0 0 0 1 0 0 0 0 0 0 0 0 0 0
2 2 2 2 1 2 3 1 0 0 0 1 0 0 0 0 1 1 0 1 1 2 1 0 0 0 0 0 0 0 0 0 0 0 0 0 0 0 0 0 0 0 0
2 1 1 2 5 3 4 1 0 0 1 1 0 0 1 0 1 0 0 0 0 1 0 0 0 0 0 0 0 0 0 0 0 0 0 0 0 0 0 0 0 0 0